Regional Weather Roundup
Issued by NWS Newport/Morehead, NC

Current Version | Previous Version | Text Only | Print | Product List | Glossary On
Versions: 1 2 3 4 5 6 7 8 9 10 11 12 13 14 15 16 17 18 19 20 21 22 23 24 25 26 27 28 29 30 31 32 33 34 35 36 37 38 39 40 41 42 43 44 45 46 47 48 49 50
762
ASUS42 KMHX 272313
RWRMHX
WEATHER ROUNDUP FOR EASTERN NORTH CAROLINA
NATIONAL WEATHER SERVICE NEWPORT/MOREHEAD CITY NC
700 PM EDT MON MAR 27 2017

NOTE: "FAIR" INDICATES FEW OR NO CLOUDS BELOW 12,000 FEET
WITH NO SIGNIFICANT WEATHER AND/OR OBSTRUCTIONS TO VISIBILITY

NCZ015>017-031-032-045>047-102-103-280000-
NORTH COAST

CITY           SKY/WX    TMP DP  RH WIND       PRES   REMARKS
EDENTON        PTCLDY    70  56  60 S9        30.01S
ELIZABETH CITY CLEAR     71  55  56 S6        30.00S
KITTY HAWK     NOT AVBL
MANTEO         CLEAR     65  55  70 SW13      30.03S

$$

NCZ045>047-081-094-103-104-280000-
CENTRAL COAST

CITY           SKY/WX    TMP DP  RH WIND       PRES   REMARKS
FRISCO         CLEAR     70  57  63 SW8       30.05S

$$

NCZ095-097-098-100-101-280000-
SOUTHERN COAST

CITY           SKY/WX    TMP DP  RH WIND       PRES   REMARKS
BEAUFORT       CLEAR     69  59  70 S7        30.05R
CEDAR ISLAND   NOT AVBL
JACKSONVILLE   CLEAR     70  55  59 S10       30.03S
PINEY ISLAND   CLEAR    N/A N/A N/A S7        30.04S
WILMINGTON     CLEAR     70  55  59 S10       30.04R


$$

NCZ011>013-027>030-043-044-078>080-089-090>093-098-280000-
COASTAL PLAIN

CITY           SKY/WX    TMP DP  RH WIND       PRES   REMARKS
AHOSKIE          N/A     71  55  56 CALM      29.99S
CLINTON        CLEAR     74  58  57 S3        30.01S
ELIZABETHTOWN  PTCLDY    73  56  55 S9        30.01S
GOLDSBORO      CLEAR     76  55  49 S6        29.98S
GREENVILLE     CLEAR     73  54  49 SW10      30.02R
HAVELOCK       PTCLDY    70  53  54 S9        30.05R
KENANSVILLE    PTCLDY    73  55  53 S3        30.01R
KINSTON        NOT AVBL
NEW BERN       CLEAR     71  54  54 S8        30.04R
RICHLANDS      CLEAR     71  54  54 S9        30.03R
ROCKY MOUNT    PTCLDY    74  57  55 S5        29.98F
WASHINGTON     MOCLDY    74  55  50 S7        30.01S
WHITEVILLE     PTCLDY    72  55  54 SE8       30.02S

$$

AMZ130-135-150-152-154-156-158-170-250-252-270-ANZ085-086-088-633-658-670-280000-
MARINE OBSERVATIONS

STATION/POSITION TIME  TEMP    WIND        PRES    WAVE   SWELL
                       AIR SEA DIR/SP/G            HT/PER HT/PER
                 (UTC) (F)     (DEG/KT/KT) (MB)    (FT/S) (FT/S)
CHESAPEAKE LIGHT NOT AVBL
64 E VA BEACH    2250   55 50  160/  8/ 10 1016.6    3/ 8   3/ 8
DUCK             2242   69 49  180/ 16/ 20 1015.6
2 E DUCK         2300      55                N/A     3/ 8   2/17
OREGON INLET     2248          180/  8/ 11 1017.0
13E OREGON INLT  2248      53                N/A     4/10   3/10
HATTERAS CG      2242   69 62  190/  3/  7 1017.2
DIAMOND BUOY     2250   71 76  190/ 12/ 16 1017.3    4/ 8   3/ 8
CAPE LOOKOUT     2200   66     170/  8/  8 1017.2
BEAUFORT LAB     2242   67 61  190/  6/  7 1016.7
30 SE NEW RVR IN 2208   68     170/  4/  6 1017.7
30 SE NEW RVR IN 2243      66                N/A     4/10   2/11
27 SE WRIGHTSVLE 2208   70 67  240/  4/  8 1016.8
5 SE WRIGHTSVLE  2208   65 62  160/  4/  8 1017.1
225 S CAPE HAT   2250   69 73   80/  8/ 10 1018.7    6/10   7/10
41 SE CHARLESTON 2250   72 75  170/ 12/ 16 1016.7    4/10   3/10

$$




USA.gov is the U.S. government's official web portal to all federal, state and local government web resources and services.